Waterville, ME

8:33 PM EST on December 06, 2019 (GMT -0500)
Waterville Lafleur

Weather History for KWVL - November, 2019

Change the Weather History Date:

Saturday, November 16, 2019

  Actual Average Record
Temperature  
Mean Temperature 20 °F -  
Max Temperature 28 °F 44 °F 67 °F (1990)
Min Temperature 12 °F 26 °F 12 °F (2019)
Degree Days  
Heating Degree Days 45    
Moisture  
Dew Point 5 °F    
Average Humidity 52    
Maximum Humidity 74    
Minimum Humidity 36    
Precipitation  
Precipitation 0.00 in - - ()
Sea Level Pressure  
Sea Level Pressure 30.52 in    
Wind  
Wind Speed 11 mph (NW)    
Max Wind Speed 17 mph    
Max Gust Speed 25 mph    
Visibility 10 miles    
Events      
Averages and records for this station are not official NWS values.
T = Trace of Precipitation, MM = Missing Value Source: NWS Daily Summary

Daily Weather History Graph

Daily Weather History Graph

Search for Another Location

Airport or City:

Astronomy

Nov. 16, 2019 Rise Set
Actual Time 6:36 AM EST 4:10 PM EST
Civil Twilight 6:04 AM EST 4:41 PM EST
Nautical Twilight 5:29 AM EST 5:17 PM EST
Astronomical Twilight 4:54 AM EST 5:51 PM EST
Moon 7:35 PM EST (11/16) 10:31 AM EST (11/16)
Length of Visible Light 10h 37m
Length of Day
9h 34m
Waning Gibbous, 82% of the Moon is Illuminated
Nov 16
Waning Gibbous
Nov 19
Last Quarter
Nov 26
New
Dec 4
First Quarter
Dec 12
Full

Hourly Weather History & Observations

Time (EST) Temp. Windchill Dew Point Humidity Pressure Visibility Wind Dir Wind Speed Gust Speed Precip Events Conditions
12:56 AM 25.0 °F 11.7 °F 9.0 °F 51% 30.30 in 10.0 mi WNW 17.3 mph 20.7 mph N/A   Clear
1:56 AM 21.9 °F 9.8 °F 3.9 °F 46% 30.35 in 10.0 mi NW 12.7 mph 25.3 mph N/A   Clear
2:56 AM 18.0 °F 2.6 °F 1.0 °F 48% 30.39 in 10.0 mi NNW 17.3 mph 21.9 mph N/A   Clear
3:56 AM 16.0 °F 5.3 °F 1.9 °F 54% 30.40 in 10.0 mi NNW 8.1 mph 17.3 mph N/A   Clear
4:56 AM 16.0 °F 6.3 °F -0.0 °F 49% 30.43 in 10.0 mi NNW 6.9 mph - N/A   Clear
5:56 AM 14.0 °F 5.1 °F 1.0 °F 56% 30.47 in 10.0 mi NNW 5.8 mph - N/A   Clear
6:56 AM 12.9 °F 5.2 °F 1.9 °F 62% 30.51 in 10.0 mi West 4.6 mph - N/A   Clear
7:56 AM 16.0 °F 5.3 °F 3.0 °F 57% 30.53 in 10.0 mi NW 8.1 mph - N/A   Clear
8:56 AM 19.0 °F 6.8 °F 5.0 °F 54% 30.54 in 10.0 mi NW 11.5 mph - N/A   Clear
9:56 AM 21.9 °F 8.7 °F 5.0 °F 48% 30.56 in 10.0 mi NW 15.0 mph 18.4 mph N/A   Clear
10:56 AM 24.1 °F 12.5 °F 5.0 °F 44% 30.55 in 10.0 mi NW 12.7 mph 19.6 mph N/A   Clear
11:56 AM 25.0 °F 12.2 °F 3.0 °F 39% 30.53 in 10.0 mi NNW 16.1 mph 23.0 mph N/A   Clear
12:56 PM 27.0 °F 15.6 °F 5.0 °F 39% 30.52 in 10.0 mi NW 13.8 mph 19.6 mph N/A   Clear
1:56 PM 28.0 °F 19.3 °F 5.0 °F 38% 30.51 in 10.0 mi NW 9.2 mph - N/A   Clear
2:56 PM 28.9 °F 19.2 °F 5.0 °F 36% 30.51 in 10.0 mi NNW 11.5 mph - N/A   Clear
3:56 PM 28.0 °F 19.3 °F 6.1 °F 39% 30.53 in 10.0 mi NNW 9.2 mph - N/A   Clear
4:56 PM 26.1 °F 19.4 °F 8.1 °F 47% 30.56 in 10.0 mi NNW 5.8 mph - N/A   Clear
5:56 PM 24.1 °F 18.2 °F 8.1 °F 51% 30.58 in 10.0 mi North 4.6 mph - N/A   Clear
6:56 PM 21.9 °F 13.4 °F 8.1 °F 55% 30.60 in 10.0 mi North 6.9 mph - N/A   Clear
7:56 PM 19.9 °F - 8.1 °F 60% 30.60 in 10.0 mi Calm Calm - N/A   Clear
8:56 PM 17.1 °F 11.7 °F 8.1 °F 68% 30.62 in 10.0 mi WNW 3.5 mph - N/A   Clear
9:56 PM 17.1 °F 10.0 °F 8.1 °F 68% 30.63 in 10.0 mi North 4.6 mph - N/A   Clear
10:56 PM 17.1 °F 8.7 °F 8.1 °F 68% 30.60 in 10.0 mi NNE 5.8 mph - N/A   Clear
11:56 PM 14.0 °F - 7.0 °F 74% 30.61 in 10.0 mi Calm Calm - N/A   Clear